Challis, ID

4:29 AM MDT on September 27, 2016 (GMT -0600)
Challis

Weather History for KLLJ - April, 2014

Change the Weather History Date:

Friday, April 4, 2014

  Actual Average Record
Temperature  
Mean Temperature 39 °F 41 °F  
Max Temperature 49 °F 55 °F 73 °F (1960)
Min Temperature 28 °F 28 °F 13 °F (1918)
Degree Days  
Heating Degree Days 26 24  
Month to date heating degree days 115 96  
Since 1 July heating degree days 6717 7041  
Cooling Degree Days 0 0  
Month to date cooling degree days 0 0  
Year to date cooling degree days 0 0  
Moisture  
Dew Point 23 °F    
Average Humidity 53    
Maximum Humidity 72    
Minimum Humidity 34    
Precipitation  
Precipitation T in 0.02 in 0.47 in (2006)
Month to date precipitation 0.58 0.08  
Year to date precipitation 2.26 1.92  
Sea Level Pressure  
Sea Level Pressure 29.89 in    
Wind  
Wind Speed 5 mph (SSW)    
Max Wind Speed 21 mph    
Max Gust Speed 25 mph    
Visibility 10 miles    
Events      
T = Trace of Precipitation, MM = Missing Value Source: NWS Daily Summary

Daily Weather History Graph

Daily Weather History Graph

Search for Another Location

Airport or City:

Trip Planner

Search our weather history database for the weather conditions in past years. The results will help you decide how hot, cold, wet, or windy it might be!

Date:

Astronomy

Apr. 04, 2014 Rise Set
Actual Time 7:12 AM MDT 8:08 PM MDT
Civil Twilight 6:42 AM MDT 8:37 PM MDT
Nautical Twilight 6:07 AM MDT 9:13 PM MDT
Astronomical Twilight 5:30 AM MDT 9:50 PM MDT
Moon 10:24 AM MDT (4/4) 12:38 AM MDT (4/4)
Length of Visible Light 13h 55m
Length of Day
12h 55m
Waxing Crescent, 26% of the Moon is Illuminated
Apr 4
Waxing Crescent
Apr 7
First Quarter
Apr 15
Full
Apr 22
Last Quarter
Apr 29
New

Hourly Weather History & Observations

Time (MDT) Temp. Windchill Dew Point Humidity Pressure Visibility Wind Dir Wind Speed Gust Speed Precip Events Conditions
12:55 AM 32.0 °F - 24.1 °F 73% 30.01 in 10.0 mi Calm Calm - N/A   Clear
1:55 AM 30.0 °F - 19.9 °F 66% 30.00 in 10.0 mi Calm Calm - N/A   Clear
2:55 AM 30.0 °F - 21.0 °F 69% 29.98 in 10.0 mi Calm Calm - N/A   Clear
3:55 AM 30.0 °F - 23.0 °F 75% 29.96 in 10.0 mi Calm Calm - N/A   Clear
4:55 AM 30.0 °F 26.5 °F 21.0 °F 69% 29.95 in 10.0 mi WSW 3.5 mph - N/A   Clear
5:55 AM 28.0 °F 24.2 °F 19.9 °F 72% 29.95 in 10.0 mi ESE 3.5 mph - N/A   Clear
6:55 AM 28.9 °F - 19.9 °F 69% 29.95 in 10.0 mi Calm Calm - N/A   Scattered Clouds
7:55 AM 30.0 °F - 19.9 °F 66% 29.95 in 10.0 mi Calm Calm - N/A   Scattered Clouds
8:55 AM 30.9 °F - 21.0 °F 67% 29.96 in 10.0 mi Calm Calm - N/A   Mostly Cloudy
9:55 AM 34.0 °F - 21.9 °F 61% 29.95 in 10.0 mi Calm Calm - N/A   Mostly Cloudy
10:55 AM 37.9 °F - 23.0 °F 55% 29.93 in 10.0 mi Calm Calm - N/A   Mostly Cloudy
11:55 AM 43.0 °F 39.5 °F 26.1 °F 51% 29.88 in 10.0 mi SE 5.8 mph - N/A   Overcast
12:55 PM 48.0 °F - 24.1 °F 39% 29.85 in 10.0 mi South 12.7 mph 21.9 mph N/A   Overcast
1:55 PM 48.0 °F - 23.0 °F 37% 29.83 in 10.0 mi SW 12.7 mph - N/A   Overcast
2:55 PM 45.0 °F 38.9 °F 28.0 °F 52% 29.82 in 10.0 mi SSE 12.7 mph 20.7 mph N/A   Overcast
3:55 PM 46.0 °F 39.0 °F 28.0 °F 50% 29.81 in 10.0 mi SSE 17.3 mph 21.9 mph 0.00 in   Overcast
4:18 PM 43.0 °F 35.7 °F 28.9 °F 58% 29.82 in 10.0 mi SW 15.0 mph 23.0 mph N/A   Overcast
4:55 PM 48.0 °F - 24.1 °F 39% 29.80 in 10.0 mi SSW 12.7 mph 19.6 mph N/A   Mostly Cloudy
5:55 PM 48.0 °F - 21.9 °F 36% 29.80 in 10.0 mi West 5.8 mph - N/A   Mostly Cloudy
6:55 PM 46.9 °F - 19.9 °F 34% 29.81 in 10.0 mi West 5.8 mph - N/A   Scattered Clouds
7:55 PM 45.0 °F 40.6 °F 21.9 °F 40% 29.82 in 10.0 mi SW 8.1 mph - N/A   Overcast
8:55 PM 43.0 °F 38.8 °F 23.0 °F 45% 29.85 in 10.0 mi SSW 6.9 mph - N/A   Overcast
9:55 PM 41.0 °F 37.1 °F 21.9 °F 47% 29.86 in 10.0 mi West 5.8 mph - N/A   Mostly Cloudy
10:55 PM 41.0 °F 37.1 °F 21.9 °F 47% 29.85 in 10.0 mi SSW 5.8 mph - N/A   Scattered Clouds
11:55 PM 39.0 °F 36.8 °F 21.9 °F 50% 29.84 in 10.0 mi West 3.5 mph - N/A   Scattered Clouds